Hourly Data Report for July 03, 2021

WINDSOR A
ONTARIO
Current Station Operator: NAVCAN

42°16'34.000" N
82°57'19.000" W
189.60 m
6139530
71538
YQG

Download Data

Hourly Data (July 2021)
Hourly Data Report for July 3, 2021
TIME
LST
Temp Definition
°C
Dew Point Definition
°C
Rel Hum Definition
%
Precip. Amount Definition
mm

Wind Dir Definition
10's deg

Wind Spd Definition
km/h
Visibility Definition
km
Stn Press Definition
kPa
Hmdx Definition


Wind Chill Definition


Weather Definition


00:00 16.5 10.0 65 0.0 35 5 16.1 99.28     LegendNANA
01:00 16.0 9.0 63 0.0 35 9 16.1 99.29     LegendNANA
02:00 16.3 9.1 62 0.0 30 5 16.1 99.27     LegendNANA
03:00 15.0 9.4 69 0.0 32 9 16.1 99.25     LegendNANA
04:00 14.3 9.6 73 0.0 30 5 16.1 99.26     LegendNANA
05:00 13.9 10.2 78 0.0 29 9 16.1 99.26     LegendNANA
06:00 14.9 12.1 83 0.0 28 8 16.1 99.28     LegendNANA
07:00 16.4 11.3 72 0.0 29 11 16.1 99.31     LegendNANA
08:00 18.8 11.8 63 0.0 29 11 16.1 99.32     LegendNANA
09:00 20.1 11.6 58 0.0 28 15 16.1 99.27     LegendNANA
10:00 21.6 11.1 51 0.0 28 17 16.1 99.21     LegendNANA
11:00 22.0 9.9 46 0.0 31 11 16.1 99.19     LegendNANA
12:00 22.7 10.9 47 0.0 27 11 16.1 99.08     LegendNANA
13:00 23.9 12.9 50 0.0 26 21 16.1 98.99 27   LegendNANA
14:00 23.9 13.7 52 0.0 24 17 16.1 98.92 27   LegendNANA
15:00 24.1 14.4 54 0.0 24 22 16.1 98.89 28   LegendNANA
16:00 25.2 15.3 54 0.0 23 17 16.1 98.85 29   LegendNANA
17:00 25.7 16.0 55 0.0 21 18 16.1 98.81 30   LegendNANA
18:00 26.2 17.4 58 0.0 22 8 16.1 98.78 32   LegendNANA
19:00 25.9 17.7 60 0.0 22 13 16.1 98.78 32   LegendNANA
20:00 24.0 17.8 68 0.0 20 13 16.1 98.77 30   LegendNANA
21:00 22.7 18.2 75 0.0 19 11 16.1 98.79 29   LegendNANA
22:00 21.2 18.8 86 0.0 19 8 16.1 98.80 28   LegendNANA
23:00 21.1 18.9 87 0.0 19 11 16.1 98.78 28   LegendNANA

Notes on Data Quality.

Legend

  • E = Estimated
  • M = Missing
  • NA = Not Available*
  • [empty] = Indicates an unobserved value
Date modified: